YF9UAG-16 Weather Reports


time (UTC)temp
F
wind
direction
speed
knots
gust
knots
rain 1hr
in
rain 24hr
in
rain mn
in
humidity
%
barometer
mb
20260508052026 100 0 0.0 0.0 0.00 0.00 0.00 37 1006.0
20260508051504 97 0 0.0 0.0 0.00 0.00 0.00 40 1006.0
20260508050942 96 0 0.0 0.0 0.00 0.00 0.00 40 1006.0
20260508050420 98 0 0.0 0.0 0.00 0.00 0.00 39 1006.0
20260508045858 99 0 0.0 0.0 0.00 0.00 0.00 40 1006.0
20260508045336 98 0 0.0 0.0 0.00 0.00 0.00 41 1006.0
20260508044814 101 0 0.0 0.0 0.00 0.00 0.00 37 1006.0
20260508044252 98 0 0.0 0.0 0.00 0.00 0.00 39 1006.0
20260508043729 98 0 0.0 0.0 0.00 0.00 0.00 39 1006.0
20260508043207 98 0 0.0 0.0 0.00 0.00 0.00 41 1006.0
20260508042646 98 0 0.0 0.0 0.00 0.00 0.00 40 1006.0
20260508042124 96 0 0.0 0.0 0.00 0.00 0.00 41 1006.0
20260508041602 97 0 0.0 0.0 0.00 0.00 0.00 41 1006.0
20260508041040 95 0 0.0 0.0 0.00 0.00 0.00 47 1006.0
20260508040517 92 0 0.0 0.0 0.00 0.00 0.00 53 1006.0
20260508035957 90 0 0.0 0.0 0.00 0.00 0.00 50 1007.0
20260508035434 90 0 0.0 0.0 0.00 0.00 0.00 52 1007.0
20260508034912 90 0 0.0 0.0 0.00 0.00 0.00 53 1007.0
20260508034350 90 0 0.0 0.0 0.00 0.00 0.00 55 1007.0
20260508033829 89 0 0.0 0.0 0.00 0.00 0.00 55 1007.0
20260508033306 88 0 0.0 0.0 0.00 0.00 0.00 56 1007.0
20260508032744 88 0 0.0 0.0 0.00 0.00 0.00 56 1007.0
20260508032222 87 0 0.0 0.0 0.00 0.00 0.00 57 1007.0
20260508031659 87 0 0.0 0.0 0.00 0.00 0.00 59 1007.0
20260508031137 87 0 0.0 0.0 0.00 0.00 0.00 60 1007.0
20260508030615 86 0 0.0 0.0 0.00 0.00 0.00 60 1007.0
20260508030054 86 0 0.0 0.0 0.00 0.00 0.00 59 1007.0
20260508025533 86 0 0.0 0.0 0.00 0.00 0.00 62 1007.0
20260508025009 85 0 0.0 0.0 0.00 0.00 0.00 62 1007.0
20260508024448 85 0 0.0 0.0 0.00 0.00 0.00 64 1007.0
20260508023926 85 0 0.0 0.0 0.00 0.00 0.00 64 1008.0
20260508023404 85 0 0.0 0.0 0.00 0.00 0.00 65 1008.0
20260508022841 85 0 0.0 0.0 0.00 0.00 0.00 69 1008.0
20260508022320 85 0 0.0 0.0 0.00 0.00 0.00 67 1008.0
20260508021758 84 0 0.0 0.0 0.00 0.00 0.00 67 1008.0
20260508021235 85 0 0.0 0.0 0.00 0.00 0.00 68 1008.0
20260508020713 84 0 0.0 0.0 0.00 0.00 0.00 66 1008.0
20260508020151 85 0 0.0 0.0 0.00 0.00 0.00 66 1008.0
20260508015634 85 0 0.0 0.0 0.00 0.00 0.00 67 1008.0
20260508015107 85 0 0.0 0.0 0.00 0.00 0.00 69 1008.0
20260508014545 85 0 0.0 0.0 0.00 0.00 0.00 70 1008.0
20260508014026 84 0 0.0 0.0 0.00 0.00 0.00 71 1008.0
20260508013501 85 0 0.0 0.0 0.00 0.00 0.00 69 1008.0
20260508012940 85 0 0.0 0.0 0.00 0.00 0.00 72 1009.0
20260508012418 84 0 0.0 0.0 0.00 0.00 0.00 70 1009.0
20260508011856 85 0 0.0 0.0 0.00 0.00 0.00 73 1009.0
20260508011336 83 0 0.0 0.0 0.00 0.00 0.00 70 1009.0
20260508010813 84 0 0.0 0.0 0.00 0.00 0.00 73 1009.0
20260508010249 85 0 0.0 0.0 0.00 0.00 0.00 73 1009.0
20260508005727 83 0 0.0 0.0 0.00 0.00 0.00 73 1009.0
20260508005205 84 0 0.0 0.0 0.00 0.00 0.00 78 1009.0
20260508004643 84 0 0.0 0.0 0.00 0.00 0.00 76 1009.0
20260508004121 83 0 0.0 0.0 0.00 0.00 0.00 76 1010.0
20260508003559 84 0 0.0 0.0 0.00 0.00 0.00 80 1010.0
20260508003037 83 0 0.0 0.0 0.00 0.00 0.00 77 1010.0
20260508002515 84 0 0.0 0.0 0.00 0.00 0.00 80 1010.0
20260508001953 83 0 0.0 0.0 0.00 0.00 0.00 80 1010.0
20260508001431 83 0 0.0 0.0 0.00 0.00 0.00 77 1010.0
20260508000909 84 0 0.0 0.0 0.00 0.00 0.00 80 1010.0
20260508000349 83 0 0.0 0.0 0.00 0.00 0.00 77 1010.0
20260507235825 83 0 0.0 0.0 0.00 0.00 0.00 80 1010.0
20260507235306 83 0 0.0 0.0 0.00 0.00 0.00 83 1010.0
20260507234741 83 0 0.0 0.0 0.00 0.00 0.00 81 1010.0
20260507234219 83 0 0.0 0.0 0.00 0.00 0.00 79 1010.0
20260507233657 82 0 0.0 0.0 0.00 0.00 0.00 79 1010.0
20260507233135 83 0 0.0 0.0 0.00 0.00 0.00 84 1010.0
20260507232615 83 0 0.0 0.0 0.00 0.00 0.00 83 1010.0
20260507232052 83 0 0.0 0.0 0.00 0.00 0.00 81 1010.0
20260507231529 83 0 0.0 0.0 0.00 0.00 0.00 79 1010.0
20260507231007 82 0 0.0 0.0 0.00 0.00 0.00 79 1010.0
20260507230445 83 0 0.0 0.0 0.00 0.00 0.00 83 1010.0
20260507225923 83 0 0.0 0.0 0.00 0.00 0.00 81 1010.0
20260507225401 83 0 0.0 0.0 0.00 0.00 0.00 79 1010.0
20260507224839 82 0 0.0 0.0 0.00 0.00 0.00 77 1010.0
20260507224317 83 0 0.0 0.0 0.00 0.00 0.00 82 1010.0
20260507223755 83 0 0.0 0.0 0.00 0.00 0.00 80 1010.0
20260507223233 83 0 0.0 0.0 0.00 0.00 0.00 77 1010.0
20260507222711 83 0 0.0 0.0 0.00 0.00 0.00 81 1009.0
20260507222149 83 0 0.0 0.0 0.00 0.00 0.00 81 1010.0
20260507221627 83 0 0.0 0.0 0.00 0.00 0.00 79 1010.0
20260507221105 82 0 0.0 0.0 0.00 0.00 0.00 77 1010.0
20260507220543 83 0 0.0 0.0 0.00 0.00 0.00 83 1009.0
20260507220021 83 0 0.0 0.0 0.00 0.00 0.00 81 1009.0
20260507215459 82 0 0.0 0.0 0.00 0.00 0.00 79 1009.0
20260507214937 83 0 0.0 0.0 0.00 0.00 0.00 83 1009.0
20260507214415 83 0 0.0 0.0 0.00 0.00 0.00 83 1009.0
20260507213853 82 0 0.0 0.0 0.00 0.00 0.00 81 1009.0
20260507213331 81 0 0.0 0.0 0.00 0.00 0.00 79 1009.0
20260507212809 82 0 0.0 0.0 0.00 0.00 0.00 85 1009.0
20260507212247 82 0 0.0 0.0 0.00 0.00 0.00 83 1009.0
20260507211728 82 0 0.0 0.0 0.00 0.00 0.00 81 1009.0
20260507211203 81 0 0.0 0.0 0.00 0.00 0.00 80 1009.0
20260507210641 82 0 0.0 0.0 0.00 0.00 0.00 86 1009.0
20260507210120 82 0 0.0 0.0 0.00 0.00 0.00 84 1009.0
20260507205557 82 0 0.0 0.0 0.00 0.00 0.00 80 1009.0
20260507205035 82 0 0.0 0.0 0.00 0.00 0.00 82 1009.0
20260507204513 82 0 0.0 0.0 0.00 0.00 0.00 84 1009.0
20260507203953 82 0 0.0 0.0 0.00 0.00 0.00 81 1008.0
20260507203429 82 0 0.0 0.0 0.00 0.00 0.00 78 1008.0
20260507202907 82 0 0.0 0.0 0.00 0.00 0.00 84 1008.0
20260507202346 82 0 0.0 0.0 0.00 0.00 0.00 85 1008.0
20260507201823 82 0 0.0 0.0 0.00 0.00 0.00 85 1008.0
20260507201301 82 0 0.0 0.0 0.00 0.00 0.00 86 1008.0
20260507200739 82 0 0.0 0.0 0.00 0.00 0.00 86 1008.0
20260507200217 82 0 0.0 0.0 0.00 0.00 0.00 86 1008.0
20260507195655 82 0 0.0 0.0 0.00 0.00 0.00 86 1008.0
20260507195133 82 0 0.0 0.0 0.00 0.00 0.00 86 1008.0
20260507194611 82 0 0.0 0.0 0.00 0.00 0.00 86 1008.0
20260507194051 82 0 0.0 0.0 0.00 0.00 0.00 86 1008.0
20260507193528 82 0 0.0 0.0 0.00 0.00 0.00 86 1008.0
20260507193005 82 0 0.0 0.0 0.00 0.00 0.00 86 1008.0
20260507192443 82 0 0.0 0.0 0.00 0.00 0.00 86 1008.0
20260507191921 82 0 0.0 0.0 0.00 0.00 0.00 86 1008.0
20260507191359 82 0 0.0 0.0 0.00 0.00 0.00 86 1008.0
20260507190837 82 0 0.0 0.0 0.00 0.00 0.00 86 1008.0
20260507190317 82 0 0.0 0.0 0.00 0.00 0.00 86 1008.0
20260507185753 82 0 0.0 0.0 0.00 0.00 0.00 85 1008.0